Location: Dob?e?
(49.9411°N, 15.1496°E)
Time: 07:20:45
(UTC+00:00)

ISS - Pass Details

Date: 23 July 2021
Orbit: 417 x 422 km, 51.6° (Epoch: 27 September)

Event Time Altitude Azimuth Distance (km) Brightness Sun altitude
Rises 17:56:38 0° 247° (WSW) 2,366 0.8 7.4°
Reaches altitude 10° 17:58:44 10° 246° (WSW) 1,502 -0.2 7.0°
Drops below altitude 10° 18:05:28 10° 74° (ENE) 1,504 -1.4 6.0°
Enters shadow 18:11:17 -11° 73° (ENE) 3,893 0.7 5.2°
Exits shadow 18:43:24 -76° 80° (E) 12,822 3.6 0.6°
Maximum altitude 19:39:02 62° 360° (N) 476 -3.3 -6.6°
